Location: Newark
(9.1167°S, 159.8667°E)
Time: 05:29:31
(UTC+00:00)

OTV 5 (USA 277) - Visible Passes

Search period start: 15 September 2019 00:00
Search period end: 25 September 2019 00:00
Orbit: 295 x 339 km, 54.5° (Epoch: 08 September)

Date Brightness Start Highest point End Pass type
(mag) Time Alt. Az. Time Alt. Az. Time Alt. Az.
21 Sep ? 08:01:43 10° N 08:03:33 20° NE 08:03:33 20° NE visible
22 Sep ? 08:15:41 10° NW 08:18:11 56° WSW 08:19:23 26° SSE visible
23 Sep ? 08:31:48 10° WSW 08:32:43 11° SW 08:33:38 10° SSW visible
23 Sep ? 18:12:25 10° S 18:14:50 24° SE 18:17:14 10° ENE visible
24 Sep ? 18:26:30 10° SW 18:29:19 59° WNW 18:32:07 10° NNE visible
